Regional Weather Roundup
Issued by NWS Upton, NY

Current Version | Previous Version | Text Only | Print | Product List | Glossary Off
Versions: 1 2 3 4 5 6 7 8 9 10 11 12 13 14 15 16 17 18 19 20 21 22 23 24 25 26 27 28 29 30 31 32 33 34 35 36 37 38 39 40 41 42 43 44 45 46 47 48 49 50
347 ASUS41 KOKX 232308 RWROKX REGIONAL WEATHER ROUNDUP NATIONAL WEATHER SERVICE NEW YORK NY 700 PM EDT THU MAR 23 2017 NOTE: "FAIR" INDICATES FEW OR NO CLOUDS BELOW 12,000 FEET WITH NO SIGNIFICANT WEATHER AND/OR OBSTRUCTIONS TO VISIBILITY. NYZ071-072-176-178-NJZ106-104-240000- NEW YORK CITY METRO AREA CITY SKY/WX TMP DP RH WIND PRES REMARKS Central Park CLEAR 41 0 18 MISG 30.53R Wall St Helipt CLEAR 45 7 21 W6 30.52S LaGuardia APRT PTCLDY 44 4 19 W8G16 30.50S Kennedy INTL PTCLDY 42 0 17 W10 30.52R Breezy Point N/A 39 N/A N/A W8G14 N/A WCI 34 Newark/Liberty PTCLDY 43 -5 13 NW10 30.51R Teterboro CLEAR 43 2 18 NW13 30.50R $$ NYZ177-179-078>081-240000- LONG ISLAND NEW YORK CITY SKY/WX TMP DP RH WIND PRES REMARKS Jones Beach N/A 39 N/A N/A SW10G16 N/A WCI 32 Matinecock PT N/A 41 N/A N/A W8 N/A Farmingdale CLEAR 40 -1 18 NW7 30.51R MacArthur/ISP PTCLDY 37 1 22 W6 30.51R WCI 32 Shirley CLEAR 37 1 22 W8 30.52R WCI 31 Westhampton CLEAR 36 -2 20 NW6 30.52R WCI 31 East Hampton N/A 35 2 25 NW6 30.50R WCI 30 Montauk N/A 37 4 25 NW12 30.51R WCI 29 $$ NYZ052-065-067-240000- HUDSON VALLEY CITY SKY/WX TMP DP RH WIND PRES REMARKS White Plains CLEAR 38 0 20 NW10 30.48R WCI 31 Newburgh CLEAR 37 9 30 W9 30.49R WCI 31 Montgomery CLEAR 39 1 20 W5 30.47R Poughkeepsie CLEAR 38 0 20 CALM 30.48R Albany PTCLDY 34 6 31 W12 30.49R WCI 25 $$ NJZ001-105-106-008-010-013-015-019>022-104-240000- NEW JERSEY CITY SKY/WX TMP DP RH WIND PRES REMARKS Newark/Liberty PTCLDY 43 -5 13 NW10 30.51R Teterboro CLEAR 43 2 18 NW13 30.50R Caldwell CLEAR 42 0 17 NW6 30.51R Somerville CLEAR 42 3 19 CALM 30.49R Linden N/A 41 4 21 NW6 30.52R Sussex CLEAR 38 2 22 NW3 30.49S Andover N/A 37 -1 20 CALM 30.48S Trenton CLEAR 42 5 21 NW6 30.51R Millville CLEAR 39 11 31 W5 30.54R Atlantic City CLEAR 42 5 21 W7 30.54R Wrightstown CLEAR 41 6 23 W6 30.49S Toms River CLEAR 41 7 24 CALM 30.53R Belmar CLEAR 36 18 48 SE8 30.53R WCI 30 $$ PAZ047>061-062-071-240000- EASTERN PENNSYLVANIA CITY SKY/WX TMP DP RH WIND PRES REMARKS Philadelphia PTCLDY 44 6 21 W9 30.53R Allentown CLEAR 41 3 20 NW7 30.49S Scranton CLEAR 38 7 27 CALM 30.46F $$ CTZ002-004>006-009-010-012-RIZ004-006-007-MAZ004-011-015-240000- SOUTHERN NEW ENGLAND IN CT CITY SKY/WX TMP DP RH WIND PRES REMARKS Bradley INTL CLEAR 34 5 29 NW8 30.49R WCI 27 Hartford CLEAR 37 1 22 NW10 30.49S WCI 30 Danbury CLEAR 37 -3 18 W5 30.49R WCI 33 Wtrbury/Oxford CLEAR 36 0 21 NW6 30.48R WCI 31 Bridgeport CLEAR 40 0 18 W7 30.51R Meriden CLEAR 38 0 20 W5 30.50R WCI 34 New Haven CLEAR 38 1 21 NW5 30.51R WCI 34 Chester N/A 36 -4 18 NW7 30.48R WCI 30 Groton CLEAR 36 -1 21 NW9 30.49R WCI 29 Wilimantic CLEAR 37 1 22 W5 30.49R WCI 33 IN RI CITY SKY/WX TMP DP RH WIND PRES REMARKS Providence PTCLDY 36 -2 20 NW13G24 30.47R WCI 27 Block Island CLEAR 36 6 28 W8 30.49R WCI 30 Westerly CLEAR 37 -1 20 VRB6 30.50R WCI 32 IN MA CITY SKY/WX TMP DP RH WIND PRES REMARKS Boston PTCLDY 37 0 21 NW9 30.45R WCI 30 Worcester CLEAR 30 -2 25 W8 30.42R WCI 22 Westfield CLEAR 34 3 27 W8 30.47R WCI 27 Provincetown NOT AVBL Nantucket CLEAR 33 6 32 W7 30.45R WCI 27 $$ ANZ330-335-338-340-345-350-353-355-240000- COASTAL MARINE OBSERVATIONS STATION/POSITION TIME SKY/WX TEMP WIND PRES VSBY WAVE AIR SEA DIR/SP/G HT/PER (UTC) (F) (DEG/KT/KT) (MB) (MI) (FT/S) NY HARB ENTRANCE 2150 40 42 270/ 10/ 17 1033.3 1/10 20 S FIRE ISLAND 2250 37 41 230/ 16/ 17 1033.7 2/10 GREAT SOUTH BAY NOT AVBL 23 SSW MONTAUK P 2150 37 42 1032.6 4/ 5 15 E BARNEGAT LI 2230 43 N/A 2/10 HUDSON CANYON 2150 35 45 300/ 12/ 16 1034.2 3/ 5 KINGS POINT 2230 41 39 1032.7 EXECUTION ROCKS NOT AVBL CENTRAL LI SOUND 2230 39 300/ 8/ 10 N/A 1/ 4 EASTERN LI SOUND NOT AVBL ROBBINS REEF 2230 42 290/ 11/ 13 1033.3 $$ >>>>>>>>>>>>>>>>>>>>>>>>>>>> KEY <<<<<<<<<<<<<<<<<<<<<<<<<<< > < > SKY/WX - Sky Condition/Present Weather < > TMP - Temperature in Fahrenheit < > DP - Dew Point in Fahrenheit < > RH - Relative Humidity in Percent < > WIND - Direction (from) and Speed in MPH < > PRES - Mean Sea Level Pressure (inches of Hg) < > WCI - Wind Chill Index < > VSB - VISIBILITY IN MILES < > HX - HEAT INDEX < > TC - TEMPERATURE IN CELSIUS < > VRB - VARIABLE WIND DIRECTION < > < >>>>>>>>>>>>>>>>>>>>>>>>>>>> KEY <<<<<<<<<<<<<<<<<<<<<<<<<<<

USA.gov is the U.S. government's official web portal to all federal, state and local government web resources and services.